| time (UTC) | temp F | wind direction | speed knots | gust knots | rain 1hr in | rain 24hr in | rain mn in | humidity % | barometer mb |
| 20260507073102 | 48 | 296 | 0.0 | 1.7 | 0.01 | 0.28 | 0.14 | 84 | 1012.5 |
| 20260507071552 | 48 | 295 | 0.0 | 3.5 | 0.02 | 0.28 | 0.14 | 84 | 1012.3 |
| 20260507070057 | 48 | 289 | 0.0 | 0.9 | 0.02 | 0.28 | 0.14 | 84 | 1012.1 |
| 20260507064553 | 48 | 289 | 0.0 | 2.6 | 0.03 | 0.28 | 0.14 | 84 | 1012.0 |
| 20260507063046 | 48 | 290 | 0.0 | 1.7 | 0.03 | 0.27 | 0.13 | 84 | 1011.8 |
| 20260507061545 | 48 | 325 | 0.0 | 3.5 | 0.02 | 0.26 | 0.13 | 84 | 1011.7 |
| 20260507060042 | 48 | 267 | 0.0 | 2.6 | 0.02 | 0.25 | 0.12 | 84 | 1011.5 |
| 20260507054541 | 48 | 300 | 0.0 | 2.6 | 0.02 | 0.24 | 0.11 | 84 | 1011.3 |
| 20260507053039 | 48 | 319 | 0.0 | 4.3 | 0.02 | 0.24 | 0.10 | 85 | 1011.2 |
| 20260507051534 | 48 | 284 | 0.0 | 2.6 | 0.02 | 0.24 | 0.10 | 85 | 1011.1 |
| 20260507050035 | 48 | 309 | 0.0 | 0.9 | 0.01 | 0.23 | 0.09 | 85 | 1010.9 |
| 20260507044531 | 48 | 309 | 0.0 | 0.0 | 0.02 | 0.23 | 0.09 | 85 | 1010.6 |
| 20260507043029 | 48 | 309 | 0.0 | 0.0 | 0.01 | 0.22 | 0.09 | 85 | 1010.5 |
| 20260507041527 | 48 | 274 | 0.0 | 2.6 | 0.01 | 0.22 | 0.09 | 85 | 1010.3 |
| 20260507040024 | 49 | 273 | 0.0 | 2.6 | 0.02 | 0.22 | 0.09 | 85 | 1010.2 |
| 20260507034523 | 49 | 188 | 0.0 | 3.5 | 0.01 | 0.21 | 0.08 | 85 | 1010.1 |
| 20260507033028 | 49 | 229 | 0.0 | 4.3 | 0.01 | 0.21 | 0.08 | 85 | 1009.8 |
| 20260507031524 | 49 | 140 | 0.0 | 0.0 | 0.01 | 0.21 | 0.08 | 85 | 1009.7 |
| 20260507030019 | 49 | 140 | 0.0 | 1.7 | 0.00 | 0.20 | 0.07 | 85 | 1009.6 |
| 20260507024520 | 49 | 139 | 0.0 | 2.6 | 0.01 | 0.20 | 0.07 | 85 | 1009.4 |
| 20260507023010 | 49 | 136 | 0.0 | 3.5 | 0.02 | 0.20 | 0.07 | 85 | 1009.4 |
| 20260507021509 | 49 | 136 | 0.0 | 3.5 | 0.03 | 0.20 | 0.07 | 85 | 1009.3 |
| 20260507020009 | 49 | 134 | 0.0 | 1.7 | 0.05 | 0.20 | 0.07 | 85 | 1009.2 |
| 20260507014522 | 50 | 134 | 0.0 | 2.6 | 0.04 | 0.20 | 0.06 | 85 | 1009.1 |
| 20260507013018 | 50 | 138 | 0.0 | 0.0 | 0.03 | 0.19 | 0.06 | 85 | 1008.9 |
| 20260507011528 | 50 | 138 | 0.0 | 1.7 | 0.02 | 0.17 | 0.04 | 85 | 1008.9 |
| 20260507010118 | 49 | 138 | 0.0 | 0.0 | 0.01 | 0.17 | 0.03 | 85 | 1009.0 |
| 20260507004517 | 49 | 138 | 0.0 | 0.0 | 0.00 | 0.16 | 0.02 | 85 | 1008.9 |
| 20260507003015 | 49 | 138 | 0.0 | 0.0 | 0.00 | 0.16 | 0.02 | 85 | 1008.9 |
| 20260507001519 | 50 | 138 | 0.0 | 0.0 | 0.00 | 0.16 | 0.02 | 85 | 1008.9 |
| 20260507000014 | 50 | 138 | 0.0 | 0.0 | 0.01 | 0.16 | 0.02 | 85 | 1008.8 |
| 20260506234513 | 50 | 138 | 0.0 | 2.6 | 0.01 | 0.16 | 0.02 | 85 | 1008.9 |
| 20260506233013 | 50 | 139 | 0.0 | 0.9 | 0.02 | 0.16 | 0.02 | 85 | 1008.9 |
| 20260506231511 | 50 | 139 | 0.0 | 0.0 | 0.02 | 0.16 | 0.02 | 85 | 1009.0 |
| 20260506230010 | 50 | 138 | 0.0 | 3.5 | 0.02 | 0.15 | 0.02 | 85 | 1009.0 |
| 20260506224509 | 50 | 138 | 0.0 | 0.9 | 0.02 | 0.15 | 0.02 | 85 | 1009.0 |
| 20260506223014 | 50 | 138 | 0.0 | 2.6 | 0.01 | 0.14 | 0.01 | 85 | 1009.0 |
| 20260506221506 | 50 | 198 | 0.0 | 3.5 | 0.00 | 0.13 | 0.00 | 85 | 1008.9 |
| 20260506220004 | 51 | 140 | 0.0 | 3.5 | 0.00 | 0.13 | 0.13 | 85 | 1008.7 |
| 20260506214502 | 51 | 150 | 0.0 | 0.0 | 0.00 | 0.13 | 0.13 | 85 | 1008.5 |
| 20260506213001 | 51 | 142 | 0.0 | 4.3 | 0.00 | 0.13 | 0.13 | 85 | 1008.3 |
| 20260506211600 | 51 | 159 | 0.0 | 0.9 | 0.00 | 0.13 | 0.13 | 85 | 1008.3 |
| 20260506210058 | 51 | 137 | 0.0 | 0.0 | 0.02 | 0.13 | 0.13 | 84 | 1008.2 |
| 20260506204559 | 51 | 137 | 0.0 | 0.0 | 0.02 | 0.13 | 0.13 | 85 | 1008.1 |
| 20260506203057 | 51 | 136 | 0.0 | 0.0 | 0.05 | 0.13 | 0.13 | 85 | 1008.1 |
| 20260506201557 | 51 | 136 | 0.9 | 3.5 | 0.06 | 0.13 | 0.13 | 85 | 1008.1 |
| 20260506200059 | 52 | 137 | 0.0 | 3.5 | 0.06 | 0.12 | 0.12 | 85 | 1008.0 |
| 20260506194555 | 52 | 140 | 0.0 | 3.5 | 0.06 | 0.11 | 0.11 | 85 | 1008.0 |
| 20260506193052 | 52 | 108 | 0.0 | 1.7 | 0.06 | 0.09 | 0.09 | 85 | 1007.6 |
| 20260506191550 | 52 | 134 | 0.0 | 0.0 | 0.05 | 0.07 | 0.07 | 85 | 1007.3 |
| 20260506190052 | 53 | 133 | 0.0 | 2.6 | 0.04 | 0.06 | 0.06 | 85 | 1006.9 |
| 20260506184551 | 53 | 144 | 0.0 | 4.3 | 0.04 | 0.05 | 0.05 | 85 | 1006.8 |
| 20260506183049 | 54 | 146 | 0.0 | 0.0 | 0.03 | 0.03 | 0.03 | 85 | 1006.6 |
| 20260506181545 | 54 | 144 | 0.0 | 3.5 | 0.02 | 0.02 | 0.02 | 85 | 1006.5 |
| 20260506180047 | 54 | 144 | 0.0 | 1.7 | 0.02 | 0.02 | 0.02 | 84 | 1006.5 |
| 20260506174545 | 55 | 154 | 0.0 | 1.7 | 0.01 | 0.01 | 0.01 | 84 | 1006.4 |
| 20260506173121 | 55 | 140 | 0.0 | 2.6 | 0.00 | 0.00 | 0.00 | 84 | 1006.2 |
| 20260506171543 | 55 | 284 | 0.0 | 1.7 | 0.00 | 0.00 | 0.00 | 83 | 1006.1 |
| 20260506170045 | 55 | 307 | 0.0 | 2.6 | 0.00 | 0.00 | 0.00 | 83 | 1006.1 |
| 20260506164548 | 55 | 182 | 0.0 | 0.0 | 0.00 | 0.00 | 0.00 | 83 | 1006.1 |
| 20260506163043 | 55 | 182 | 0.0 | 0.9 | 0.00 | 0.00 | 0.00 | 82 | 1006.0 |
| 20260506161542 | 55 | 313 | 0.0 | 0.9 | 0.00 | 0.00 | 0.00 | 82 | 1006.1 |
| 20260506160045 | 55 | 327 | 0.0 | 2.6 | 0.00 | 0.00 | 0.00 | 82 | 1005.9 |
| 20260506154548 | 55 | 259 | 0.0 | 2.6 | 0.00 | 0.00 | 0.00 | 82 | 1005.8 |
| 20260506153046 | 55 | 288 | 0.0 | 0.9 | 0.00 | 0.00 | 0.00 | 82 | 1005.8 |
| 20260506151540 | 56 | 288 | 0.0 | 1.7 | 0.00 | 0.00 | 0.00 | 82 | 1005.7 |
| 20260506150043 | 56 | 281 | 0.9 | 7.0 | 0.00 | 0.00 | 0.00 | 82 | 1005.4 |
| 20260506144542 | 56 | 332 | 0.0 | 3.5 | 0.00 | 0.00 | 0.00 | 81 | 1005.4 |
| 20260506143042 | 57 | 292 | 0.9 | 9.6 | 0.00 | 0.00 | 0.00 | 79 | 1005.2 |
| 20260506141537 | 59 | 311 | 0.9 | 7.8 | 0.00 | 0.00 | 0.00 | 75 | 1005.1 |
| 20260506140037 | 62 | 285 | 2.6 | 7.0 | 0.00 | 0.10 | 0.00 | 73 | 1005.0 |
| 20260506134536 | 63 | 278 | 0.0 | 4.3 | 0.00 | 0.10 | 0.00 | 71 | 1004.7 |
| 20260506133038 | 63 | 262 | 0.0 | 0.9 | 0.00 | 0.10 | 0.00 | 69 | 1004.5 |
| 20260506131545 | 64 | 240 | 0.0 | 0.9 | 0.00 | 0.10 | 0.00 | 67 | 1004.3 |
| 20260506130049 | 64 | 150 | 0.0 | 0.0 | 0.00 | 0.11 | 0.00 | 62 | 1004.2 |
| 20260506124533 | 64 | 150 | 0.0 | 2.6 | 0.00 | 0.11 | 0.00 | 61 | 1004.1 |
| 20260506123033 | 64 | 150 | 0.0 | 0.9 | 0.00 | 0.11 | 0.00 | 59 | 1004.1 |
| 20260506121533 | 64 | 158 | 0.0 | 0.9 | 0.00 | 0.11 | 0.00 | 61 | 1004.3 |
| 20260506120032 | 64 | 167 | 0.0 | 3.5 | 0.00 | 0.11 | 0.00 | 60 | 1004.3 |
| 20260506114534 | 65 | 139 | 0.0 | 6.1 | 0.00 | 0.11 | 0.00 | 60 | 1004.3 |
| 20260506113029 | 66 | 200 | 0.0 | 3.5 | 0.00 | 0.11 | 0.00 | 58 | 1004.3 |
| 20260506111527 | 66 | 191 | 0.0 | 2.6 | 0.00 | 0.11 | 0.00 | 53 | 1004.5 |
| 20260506110025 | 66 | 142 | 0.9 | 5.2 | 0.00 | 0.11 | 0.00 | 59 | 1004.7 |
| 20260506104520 | 65 | 227 | 0.0 | 3.5 | 0.00 | 0.11 | 0.00 | 60 | 1004.7 |
| 20260506103021 | 64 | 121 | 0.0 | 3.5 | 0.00 | 0.11 | 0.00 | 61 | 1004.8 |
| 20260506101625 | 65 | 30 | 0.0 | 0.9 | 0.00 | 0.11 | 0.00 | 60 | 1004.8 |
| 20260506100016 | 65 | 146 | 0.0 | 3.5 | 0.00 | 0.11 | 0.00 | 61 | 1005.1 |
| 20260506094522 | 64 | 141 | 0.0 | 2.6 | 0.00 | 0.11 | 0.00 | 64 | 1005.0 |
| 20260506093015 | 64 | 143 | 0.9 | 6.1 | 0.00 | 0.11 | 0.00 | 66 | 1005.0 |
| 20260506091512 | 63 | 159 | 0.0 | 4.3 | 0.00 | 0.11 | 0.00 | 66 | 1005.0 |
| 20260506090005 | 62 | 209 | 0.0 | 4.3 | 0.00 | 0.11 | 0.00 | 69 | 1004.9 |
| 20260506084503 | 62 | 224 | 0.0 | 0.9 | 0.00 | 0.11 | 0.00 | 70 | 1005.0 |
| 20260506083100 | 61 | 166 | 0.0 | 0.9 | 0.00 | 0.11 | 0.00 | 76 | 1005.2 |
| 20260506081557 | 59 | 149 | 0.0 | 4.3 | 0.00 | 0.11 | 0.00 | 79 | 1005.3 |